Fremont, MI

12:55 AM EDT on June 24, 2017 (GMT -0400)
Fremont

Weather History for KFFX - March, 2014

Change the Weather History Date:

Sunday, March 2, 2014

  Actual Average (KMKG) Record (KMKG)
Temperature  
Mean Temperature 4 °F -  
Max Temperature 12 °F 37 °F 55 °F (1964)
Min Temperature -5 °F 21 °F -9 °F (1912)
Degree Days  
Heating Degree Days 62    
Moisture  
Dew Point -2 °F    
Average Humidity 69    
Maximum Humidity 81    
Minimum Humidity 47    
Precipitation  
Precipitation 0.00 in - - ()
Sea Level Pressure  
Sea Level Pressure 30.31 in    
Wind  
Wind Speed 4 mph (North)    
Max Wind Speed 13 mph    
Max Gust Speed -    
Visibility 9 miles    
Events Snow    
Averages and records for this station are not official NWS values.
T = Trace of Precipitation, MM = Missing Value Source: NWS Daily Summary

Daily Weather History Graph

Daily Weather History Graph

Search for Another Location

Airport or City:

Trip Planner

Search our weather history database for the weather conditions in past years. The results will help you decide how hot, cold, wet, or windy it might be!

Date:

Astronomy

Mar. 02, 2014 Rise Set
Actual Time 7:18 AM EST 6:34 PM EST
Civil Twilight 6:49 AM EST 7:02 PM EST
Nautical Twilight 6:16 AM EST 7:35 PM EST
Astronomical Twilight 5:43 AM EST 8:09 PM EST
Moon 7:45 AM EST (3/2) 8:34 PM EST (3/2)
Length of Visible Light 12h 12m
Length of Day
11h 15m
Waxing Crescent, 3% of the Moon is Illuminated
Mar 2
Waxing Crescent
Mar 8
First Quarter
Mar 16
Full
Mar 23
Last Quarter
Mar 30
New

Hourly Weather History & Observations

Time (EST) Temp. Windchill Dew Point Humidity Pressure Visibility Wind Dir Wind Speed Gust Speed Precip Events Conditions
12:11 AM 10.2 °F - 4.3 °F 77% 30.27 in 5.0 mi Calm Calm - N/A Snow Light Snow
12:31 AM 10.0 °F - 4.1 °F 77% 30.27 in 7.0 mi Calm Calm - N/A Snow Light Snow
12:51 AM 10.0 °F - 4.1 °F 77% 30.28 in 10.0 mi Calm Calm - N/A   Overcast
1:11 AM 10.2 °F - 4.1 °F 76% 30.27 in 7.0 mi Calm Calm - N/A Snow Light Snow
1:31 AM 10.2 °F - 3.9 °F 76% 30.27 in 10.0 mi Calm Calm - N/A Snow Light Snow
1:51 AM 10.2 °F - 4.1 °F 76% 30.29 in 10.0 mi Calm Calm - N/A   Overcast
2:11 AM 10.4 °F - 4.1 °F 76% 30.30 in 10.0 mi Calm Calm - N/A   Overcast
2:31 AM 10.4 °F - 4.1 °F 76% 30.30 in 10.0 mi Calm Calm - N/A   Overcast
2:52 AM 10.2 °F - 4.3 °F 77% 30.28 in 10.0 mi Calm Calm - N/A   Overcast
3:12 AM 10.8 °F - 4.8 °F 77% 30.29 in 10.0 mi Calm Calm - N/A   Overcast
3:32 AM 9.5 °F - 4.1 °F 79% 30.28 in 10.0 mi Calm Calm - N/A   Overcast
3:52 AM 10.2 °F - 3.9 °F 76% 30.29 in 10.0 mi Calm Calm - N/A   Overcast
4:12 AM 9.5 °F - 4.3 °F 79% 30.29 in 10.0 mi Calm Calm - N/A   Overcast
4:32 AM 9.5 °F - 4.8 °F 81% 30.29 in 10.0 mi Calm Calm - N/A   Overcast
4:52 AM 9.3 °F - 4.6 °F 81% 30.28 in 10.0 mi Calm Calm - N/A   Overcast
5:12 AM 9.5 °F - 4.5 °F 80% 30.29 in 10.0 mi Calm Calm - N/A   Overcast
5:32 AM 9.5 °F 1.2 °F 4.5 °F 80% 30.29 in 10.0 mi ENE 4.6 mph - N/A   Overcast
5:52 AM 9.5 °F -0.3 °F 4.5 °F 80% 30.30 in 10.0 mi ENE 5.8 mph - N/A Snow Light Snow
6:13 AM 9.3 °F -2.8 °F 3.7 °F 78% 30.29 in 10.0 mi East 8.1 mph - N/A   Overcast
6:33 AM 9.0 °F -4.2 °F 1.9 °F 73% 30.29 in 10.0 mi East 9.2 mph - N/A   Overcast
6:53 AM 8.6 °F -2.6 °F 1.4 °F 73% 30.30 in 10.0 mi ENE 6.9 mph - N/A   Overcast
7:13 AM 8.6 °F -2.6 °F 1.4 °F 73% 30.30 in 10.0 mi East 6.9 mph - N/A   Overcast
7:33 AM 8.4 °F -0.1 °F 1.4 °F 73% 30.30 in 10.0 mi ENE 4.6 mph - N/A   Overcast
7:53 AM 8.2 °F -3.0 °F 0.9 °F 72% 30.30 in 10.0 mi ENE 6.9 mph - N/A   Overcast
8:13 AM 8.4 °F -3.9 °F 1.2 °F 73% 30.32 in 7.0 mi NE 8.1 mph - N/A   Overcast
8:33 AM 8.4 °F -1.6 °F 1.9 °F 75% 30.32 in 3.0 mi NNE 5.8 mph - N/A Snow Light Snow
8:53 AM 6.4 °F -3.9 °F 0.5 °F 77% 30.32 in 2.0 mi NNE 5.8 mph - N/A Snow Light Snow
9:14 AM 7.3 °F -6.2 °F -0.4 °F 71% 30.32 in 4.0 mi NE 9.2 mph - N/A   Haze
9:34 AM 7.2 °F -6.4 °F -1.3 °F 68% 30.31 in 4.0 mi ENE 9.2 mph - N/A   Haze
9:54 AM 7.5 °F -2.6 °F -1.7 °F 66% 30.32 in 10.0 mi NE 5.8 mph - N/A   Overcast
10:14 AM 7.7 °F -4.8 °F -2.4 °F 63% 30.33 in 10.0 mi North 8.1 mph - N/A   Overcast
10:34 AM 7.7 °F -3.7 °F -2.6 °F 63% 30.34 in 10.0 mi North 6.9 mph - N/A   Overcast
10:54 AM 7.3 °F -6.2 °F -2.6 °F 64% 30.33 in 5.0 mi North 9.2 mph - N/A   Haze
11:14 AM 7.7 °F -4.8 °F -2.0 °F 65% 30.33 in 4.0 mi North 8.1 mph - N/A   Haze
11:34 AM 8.1 °F -5.3 °F -2.0 °F 64% 30.34 in 7.0 mi North 9.2 mph - N/A   Overcast
11:54 AM 8.4 °F -3.9 °F -2.4 °F 62% 30.33 in 10.0 mi North 8.1 mph - N/A   Overcast
12:14 PM 9.0 °F -4.2 °F -2.2 °F 61% 30.33 in 10.0 mi North 9.2 mph - N/A   Mostly Cloudy
12:35 PM 9.5 °F -2.6 °F -1.7 °F 61% 30.33 in 10.0 mi North 8.1 mph - N/A   Overcast
12:55 PM 9.9 °F -1.1 °F -1.7 °F 60% 30.33 in 10.0 mi NNW 6.9 mph - N/A   Overcast
1:15 PM 10.2 °F -0.6 °F -1.1 °F 60% 30.33 in 10.0 mi North 6.9 mph - N/A   Overcast
1:35 PM 10.6 °F -0.2 °F -1.1 °F 59% 30.32 in 10.0 mi North 6.9 mph - N/A   Overcast
1:55 PM 11.3 °F -0.4 °F -1.1 °F 57% 30.30 in 10.0 mi NNW 8.1 mph - N/A   Mostly Cloudy
2:15 PM 11.3 °F -0.4 °F -0.4 °F 59% 30.30 in 10.0 mi NNW 8.1 mph - N/A   Scattered Clouds
2:35 PM 11.1 °F -0.6 °F -1.7 °F 57% 30.30 in 10.0 mi NNW 8.1 mph - N/A   Clear
2:55 PM 11.8 °F 2.5 °F -1.7 °F 55% 30.29 in 10.0 mi North 5.8 mph - N/A   Scattered Clouds
3:10 PM 12.2 °F 1.7 °F -2.2 °F 53% 30.29 in 10.0 mi NNW 6.9 mph - N/A   Mostly Cloudy
3:30 PM 11.3 °F -1.3 °F -3.8 °F 51% 30.29 in 10.0 mi North 9.2 mph - N/A   Scattered Clouds
3:51 PM 11.3 °F -1.3 °F -5.4 °F 47% 30.29 in 10.0 mi North 9.2 mph - N/A   Clear
4:11 PM 11.3 °F -1.3 °F -4.0 °F 50% 30.29 in 10.0 mi North 9.2 mph - N/A   Scattered Clouds
4:31 PM 11.1 °F -2.4 °F -3.8 °F 51% 30.29 in 10.0 mi NNW 10.4 mph - N/A   Scattered Clouds
4:51 PM 9.9 °F -4.7 °F -4.0 °F 54% 30.29 in 10.0 mi North 11.5 mph - N/A   Clear
5:11 PM 9.5 °F -5.9 °F -3.3 °F 56% 30.30 in 10.0 mi NNW 12.7 mph - N/A   Clear
5:31 PM 8.4 °F -5.7 °F -3.1 °F 60% 30.30 in 10.0 mi NW 10.4 mph - N/A   Clear
5:51 PM 7.0 °F -9.1 °F -3.6 °F 62% 30.31 in 10.0 mi NW 12.7 mph - N/A   Clear
6:11 PM 5.0 °F -8.1 °F -4.4 °F 65% 30.32 in 10.0 mi NNW 8.1 mph - N/A   Clear
6:31 PM 3.7 °F -8.4 °F -5.3 °F 66% 30.33 in 10.0 mi North 6.9 mph - N/A   Clear
6:52 PM 1.2 °F -8.5 °F -7.1 °F 68% 30.33 in 10.0 mi WNW 4.6 mph - N/A   Clear
7:12 PM 1.6 °F -9.7 °F -5.8 °F 71% 30.33 in 10.0 mi NW 5.8 mph - N/A   Clear
7:32 PM -1.1 °F -11.2 °F -8.5 °F 71% 30.33 in 10.0 mi WNW 4.6 mph - N/A   Clear
7:52 PM -2.0 °F -13.9 °F -9.8 °F 70% 30.33 in 10.0 mi WNW 5.8 mph - N/A   Clear
8:12 PM -2.6 °F -14.6 °F -9.0 °F 74% 30.34 in 10.0 mi WNW 5.8 mph - N/A   Clear
8:32 PM -2.4 °F -12.7 °F -9.2 °F 73% 30.34 in 10.0 mi WNW 4.6 mph - N/A   Clear
8:52 PM -4.0 °F - -9.9 °F 76% 30.35 in 10.0 mi Calm Calm - N/A   Clear
9:12 PM -2.2 °F - -8.1 °F 76% 30.35 in 10.0 mi Calm Calm - N/A   Clear
9:32 PM -2.7 °F - -8.5 °F 76% 30.35 in 10.0 mi Calm Calm - N/A   Clear
9:52 PM -3.6 °F - -9.2 °F 77% 30.35 in 10.0 mi Calm Calm - N/A   Clear
10:13 PM -2.9 °F - -8.7 °F 76% 30.35 in 10.0 mi Calm Calm - N/A   Clear
10:33 PM -2.0 °F - -8.3 °F 75% 30.36 in 10.0 mi Calm Calm - N/A   Clear
10:53 PM -3.1 °F -11.4 °F -8.5 °F 78% 30.37 in 10.0 mi West 3.5 mph - N/A   Clear
11:13 PM -4.2 °F - -8.9 °F 80% 30.38 in 10.0 mi Calm Calm - N/A   Clear
11:33 PM -5.8 °F - -11.4 °F 77% 30.37 in 10.0 mi Calm Calm - N/A   Clear
11:53 PM -3.3 °F - -8.5 °F 78% 30.37 in 10.0 mi Calm Calm - N/A   Clear